| time (UTC) | temp F | wind direction | speed MPH | gust MPH | rain 1hr in | rain 24hr in | rain mn in | humidity % | barometer mb |
| 20260504203716 | 74 | 218 | 2.0 | 6.0 | 0.00 | 0.00 | 0.00 | 29 | 1021.3 |
| 20260504202221 | 74 | 222 | 3.0 | 6.0 | 0.00 | 0.00 | 0.00 | 28 | 1021.3 |
| 20260504192218 | 76 | 244 | 2.0 | 5.0 | 0.00 | 0.00 | 0.00 | 27 | 1021.3 |
| 20260504190207 | 76 | 204 | 2.0 | 5.0 | 0.00 | 0.00 | 0.00 | 27 | 1021.3 |
| 20260504180209 | 75 | 238 | 2.0 | 6.0 | 0.00 | 0.00 | 0.00 | 29 | 1021.3 |
| 20260504175707 | 75 | 229 | 2.0 | 6.0 | 0.00 | 0.00 | 0.00 | 29 | 1021.3 |
| 20260504173706 | 74 | 239 | 3.0 | 5.0 | 0.00 | 0.00 | 0.00 | 29 | 1021.3 |
| 20260504150209 | 67 | 206 | 2.0 | 5.0 | 0.00 | 0.00 | 0.00 | 39 | 1021.3 |
| 20260504140206 | 65 | 225 | 5.0 | 10.0 | 0.00 | 0.00 | 0.00 | 40 | 1021.3 |
| 20260504120206 | 51 | 200 | 2.0 | 5.0 | 0.00 | 0.00 | 0.00 | 72 | 1021.3 |
| 20260504100217 | 46 | 202 | 2.0 | 3.0 | 0.00 | 0.00 | 0.00 | 70 | 1021.3 |
| 20260504080718 | 45 | 226 | 0.0 | 0.0 | 0.00 | 0.00 | 0.00 | 64 | 1021.3 |
| 20260504080208 | 45 | 226 | 0.0 | 0.0 | 0.00 | 0.00 | 0.00 | 64 | 1021.3 |
| 20260504070210 | 45 | 227 | 0.0 | 0.0 | 0.00 | 0.00 | 0.00 | 61 | 1021.3 |
| 20260504060207 | 46 | 219 | 2.0 | 2.0 | 0.00 | 0.00 | 0.00 | 58 | 1021.3 |
| 20260504050207 | 47 | 185 | 0.0 | 1.0 | 0.00 | 0.00 | 0.00 | 57 | 1021.3 |
| 20260504045221 | 46 | 182 | 0.0 | 0.0 | 0.00 | 0.00 | 0.00 | 57 | 1021.3 |
| 20260504040206 | 48 | 223 | 0.0 | 0.0 | 0.00 | 0.00 | 0.00 | 55 | 1021.3 |
| 20260504033716 | 48 | 223 | 0.0 | 0.0 | 0.00 | 0.00 | 0.00 | 54 | 1021.3 |
| 20260504032208 | 48 | 245 | 0.0 | 0.0 | 0.00 | 0.00 | 0.00 | 54 | 1021.3 |
| 20260504030208 | 47 | 242 | 0.0 | 2.0 | 0.00 | 0.00 | 0.00 | 55 | 1021.3 |
| 20260504020722 | 47 | 246 | 0.0 | 0.0 | 0.00 | 0.01 | 0.00 | 55 | 1021.3 |
| 20260504020208 | 47 | 246 | 0.0 | 0.0 | 0.00 | 0.01 | 0.00 | 55 | 1021.3 |
| 20260504015209 | 48 | 246 | 0.0 | 0.0 | 0.00 | 0.01 | 0.00 | 55 | 1021.3 |
| 20260504011717 | 50 | 246 | 0.0 | 0.0 | 0.00 | 0.01 | 0.00 | 51 | 1021.3 |
| 20260504010206 | 51 | 246 | 0.0 | 0.0 | 0.00 | 0.01 | 0.00 | 46 | 1021.3 |
| 20260504005709 | 52 | 246 | 0.0 | 0.0 | 0.00 | 0.01 | 0.00 | 45 | 1021.3 |
| 20260504004208 | 53 | 246 | 0.0 | 0.0 | 0.00 | 0.01 | 0.00 | 44 | 1021.3 |
| 20260504001719 | 56 | 246 | 0.0 | 0.0 | 0.00 | 0.01 | 0.00 | 38 | 1021.3 |
| 20260504001207 | 56 | 246 | 0.0 | 0.0 | 0.00 | 0.01 | 0.00 | 37 | 1021.3 |
| 20260504000211 | 56 | 246 | 0.0 | 0.0 | 0.00 | 0.01 | 0.00 | 37 | 1021.3 |
| 20260503234706 | 57 | 246 | 0.0 | 1.0 | 0.00 | 0.01 | 0.00 | 34 | 1021.3 |
| 20260503232218 | 58 | 238 | 1.0 | 3.0 | 0.00 | 0.01 | 0.00 | 31 | 1021.3 |
| 20260503230206 | 59 | 197 | 2.0 | 3.0 | 0.00 | 0.01 | 0.00 | 31 | 1021.3 |
| 20260503225718 | 59 | 228 | 2.0 | 3.0 | 0.00 | 0.01 | 0.00 | 31 | 1021.3 |
| 20260503225207 | 59 | 277 | 2.0 | 3.0 | 0.00 | 0.01 | 0.00 | 30 | 1021.3 |
| 20260503224709 | 59 | 270 | 2.0 | 3.0 | 0.00 | 0.01 | 0.00 | 30 | 1021.3 |
| 20260503224206 | 59 | 268 | 2.0 | 9.0 | 0.00 | 0.01 | 0.00 | 31 | 1021.3 |
| 20260503222723 | 59 | 265 | 5.0 | 9.0 | 0.00 | 0.01 | 0.00 | 30 | 1021.3 |
| 20260503220206 | 59 | 248 | 4.0 | 8.0 | 0.00 | 0.01 | 0.00 | 29 | 1021.3 |
| 20260503215207 | 59 | 240 | 4.0 | 8.0 | 0.00 | 0.01 | 0.00 | 30 | 1021.3 |
| 20260503214707 | 59 | 224 | 3.0 | 6.0 | 0.00 | 0.01 | 0.00 | 29 | 1021.3 |
| 20260503213218 | 59 | 232 | 3.0 | 7.0 | 0.00 | 0.01 | 0.00 | 30 | 1021.3 |
| 20260503210206 | 59 | 287 | 2.0 | 5.0 | 0.00 | 0.01 | 0.00 | 30 | 1021.3 |